Temp
81 81 81 79 65 61 55 61 68 65 67 70 75 72 66 68 66 57 70 75 76 74 77 79 82 82 82 82 82 82 83 83 83 83 83 83 83 83 83 84 84 83 84 84 83 83 83 83 83
81 83 77 70 61 52 54 65 64 68 71 74 74 72 68 64 71 68 70 76 77 76 75 77 81 82 83 82 82 83 83 83 83 83 83 83 84 84 84 84 84 83 83 84 84 84 84 83 83
84 83 71 63 58 53 55 65 67 72 75 75 70 74 70 65 71 71 74 77 77 75 76 77 81 82 83 83 83 83 83 83 83 83 83 84 84 84 84 84 84 84 84 84 84 84 84 82 83
80 76 71 63 61 65 65 68 72 72 74 74 72 65 73 77 75 75 78 78 76 76 77 81 83 83 83 83 83 83 83 83 83 83 83 84 84 85 84 84 84 84 84 84 84 84 83 83 83
76 69 61 59 61 68 72 74 74 70 71 72 73 65 67 75 77 77 77 78 76 76 78 80 82 83 83 83 83 83 84 84 83 83 84 84 84 85 84 84 84 84 84 84 84 84 84 84 83
68 66 59 55 60 69 72 74 73 70 70 70 69 68 66 75 75 76 78 76 78 76 77 79 83 83 83 84 83 83 83 84 83 83 84 84 84 84 84 84 84 84 84 84 84 84 84 83 83
67 62 59 59 62 66 70 74 69 68 69 69 73 66 68 72 76 77 77 76 77 77 77 77 79 82 84 84 83 83 83 83 83 83 83 84 84 84 84 84 84 85 85 85 85 85 83 83 83
72 67 62 61 62 63 72 72 74 71 70 78 76 64 65 72 77 77 76 75 76 76 77 77 77 78 77 80 83 84 83 83 83 84 84 84 84 85 85 83 83 84 85 85 84 84 83 83 82
78 63 60 63 65 68 72 70 76 79 73 76 77 72 75 77 77 74 73 73 74 76 75 76 76 76 77 78 80 83 83 84 84 83 84 82 78 79 82 80 83 83 84 83 84 84 83 82 81
71 65 67 72 72 70 73 74 74 72 71 71 71 75 76 76 74 72 71 71 72 73 74 76 76 76 77 79 78 77 78 78 78 78 79 77 77 77 78 81 82 83 84 84 83 83 82 79 78
72 69 74 75 76 78 74 74 76 71 66 70 67 70 73 74 73 72 72 73 72 74 75 75 76 76 76 77 76 76 76 76 76 77 77 76 75 75 76 75 75 76 79 78 78 77 77 77 77
70 78 78 78 79 77 73 75 71 72 71 77 75 74 73 72 72 72 72 73 72 73 75 76 76 76 76 75 76 75 75 75 75 75 76 74 73 73 74 73 75 74 76 76 75 75 75 75 75
74 75 78 79 77 78 78 73 72 73 75 78 76 75 73 73 73 75 75 75 74 73 74 75 75 75 76 75 75 74 74 75 75 75 75 75 73 71 72 74 74 74 74 74 74 73 73 73 74
77 77 76 76 74 74 72 72 73 73 76 75 74 73 74 74 74 74 75 74 74 75 75 76 75 76 75 74 75 74 74 75 75 75 75 75 72 72 72 73 73 73 73 74 73 73 72 72 73
79 71 75 73 73 72 77 68 69 74 76 72 73 73 74 75 76 74 75 74 75 75 76 76 76 76 75 75 73 74 74 74 75 75 76 75 74 72 72 71 72 72 73 73 72 72 72 72 72
70 69 64 72 74 74 73 61 69 75 73 71 73 73 74 74 76 76 77 77 76 76 75 76 80 77 75 75 74 74 74 74 74 75 75 75 75 74 72 71 70 72 72 72 72 70 70 70 70
65 60 61 66 74 73 68 61 70 74 72 70 72 73 74 73 75 77 78 78 77 76 76 76 77 76 75 73 74 74 75 74 74 74 74 75 75 75 73 71 71 72 71 70 70 70 69 69 69
60 61 61 64 72 71 65 62 69 72 72 70 71 72 73 73 74 77 78 79 78 77 77 77 76 75 73 74 73 73 73 74 74 74 73 75 74 75 73 71 71 72 70 70 69 68 69 69 68
69 65 68 68 73 67 63 63 67 71 71 70 71 71 72 74 77 78 78 79 78 77 75 75 74 74 74 73 72 72 72 72 73 73 74 74 74 74 73 72 72 71 70 71 70 69 68 68 68
69 64 65 67 72 69 63 64 68 70 70 71 71 72 72 74 74 75 76 78 76 75 75 74 75 74 75 73 73 73 72 73 74 74 74 75 75 74 73 72 71 71 70 70 70 68 67 68 68
61 65 63 69 68 67 65 59 62 68 71 72 73 74 75 74 74 74 75 76 77 74 74 74 74 75 75 74 72 72 73 73 72 72 73 74 74 74 73 72 72 71 70 69 69 69 68 67 68
58 70 71 68 64 56 65 51 57 66 66 70 72 73 74 75 77 76 75 75 77 75 76 75 75 75 74 73 72 72 71 70 71 71 72 72 73 73 73 72 71 70 69 69 69 70 68 67 66
68 71 69 67 61 57 56 54 58 64 61 67 72 74 76 77 77 76 77 78 78 77 75 75 74 74 73 73 74 73 71 71 69 68 70 70 70 71 72 71 70 70 69 68 68 69 68 67 66
74 68 61 56 54 48 57 58 54 56 66 71 73 76 77 77 77 78 78 78 77 78 76 75 72 73 73 73 73 73 72 69 67 67 67 68 68 68 69 70 70 69 68 68 69 69 68 68 67
66 58 49 47 45 46 53 54 64 66 72 76 74 75 77 79 77 76 75 76 76 74 75 75 74 73 73 73 73 74 73 69 68 67 67 65 66 67 67 68 68 68 68 68 68 68 68 68 67
61 60 50 43 44 50 54 51 63 77 76 76 76 78 78 79 78 77 77 77 76 76 76 76 74 74 73 74 74 74 72 70 68 67 66 66 67 68 68 68 68 68 68 69 69 68 68 68 67
60 56 62 51 44 47 50 58 69 71 71 71 74 74 76 77 78 77 78 77 77 77 76 76 74 74 73 74 73 71 70 67 67 66 66 67 67 68 68 68 68 68 68 69 69 68 68 68 68
69 67 57 49 43 41 49 51 57 63 68 68 69 72 75 77 78 78 78 78 78 79 79 77 77 75 74 74 72 71 69 68 67 66 66 65 66 68 68 68 68 68 68 69 68 68 68 68 68
60 57 54 54 49 46 45 50 61 67 69 70 70 75 76 76 77 77 77 79 79 80 80 78 77 76 74 73 72 71 69 68 67 67 67 67 66 67 67 67 67 68 68 68 67 67 68 67 67
70 63 60 58 48 46 49 53 68 70 69 69 71 75 72 74 76 77 77 78 78 78 80 79 78 77 77 74 72 71 71 69 70 67 68 67 67 66 67 67 67 68 68 68 67 67 69 67 67
MSLP
1007.13 1007.17 1007.27 1007.25 1008.50 1009.05 1009.81 1010.09 1010.05 1010.35 1010.41 1010.58 1010.62 1011.00 1011.98 1012.71 1013.21 1014.75 1014.72 1014.92 1015.07 1015.43 1015.29 1015.20 1015.18 1015.40 1015.63 1015.85 1015.84 1016.30 1016.62 1016.87 1017.03 1017.25 1017.38 1017.60 1017.58 1017.70 1017.85 1018.04 1018.07 1018.09 1018.23 1018.38 1018.39 1018.34 1018.49 1018.56 1018.61
1007.18 1007.32 1007.39 1007.93 1008.98 1009.68 1009.87 1009.88 1010.15 1010.29 1010.49 1010.62 1010.96 1011.59 1012.18 1013.29 1013.66 1014.33 1014.74 1014.85 1014.88 1015.20 1015.45 1015.49 1015.48 1015.70 1015.87 1016.09 1016.14 1016.34 1016.70 1016.84 1017.13 1017.45 1017.56 1017.82 1017.96 1017.90 1018.12 1018.32 1018.30 1018.43 1018.50 1018.55 1018.52 1018.66 1018.82 1018.85 1018.84
1007.25 1007.27 1007.93 1008.67 1009.45 1010.07 1009.92 1009.96 1009.97 1010.30 1010.61 1010.55 1011.34 1011.76 1012.58 1013.75 1014.07 1014.26 1014.42 1014.77 1015.04 1015.35 1015.41 1015.63 1015.71 1015.93 1016.04 1016.27 1016.38 1016.59 1016.85 1017.12 1017.44 1017.67 1017.93 1018.02 1018.21 1018.28 1018.38 1018.48 1018.51 1018.59 1018.59 1018.58 1018.72 1018.82 1019.02 1019.06 1018.98
1007.59 1007.87 1008.50 1008.80 1009.51 1009.30 1009.30 1009.66 1009.97 1010.32 1010.74 1010.91 1011.43 1012.43 1013.03 1013.37 1013.88 1014.06 1014.61 1014.72 1015.23 1015.40 1015.52 1015.53 1015.79 1016.02 1016.22 1016.49 1016.80 1017.00 1017.17 1017.38 1017.70 1017.92 1018.28 1018.37 1018.47 1018.52 1018.59 1018.72 1018.73 1018.83 1018.75 1018.84 1019.00 1019.04 1019.17 1019.17 1019.11
1008.01 1008.67 1009.06 1009.17 1009.39 1009.11 1009.03 1009.38 1009.70 1010.23 1010.88 1011.40 1011.62 1013.04 1013.57 1014.02 1013.97 1014.37 1014.82 1015.17 1015.36 1015.51 1015.57 1015.72 1015.93 1016.16 1016.50 1016.84 1017.12 1017.22 1017.43 1017.70 1017.95 1018.24 1018.42 1018.52 1018.62 1018.67 1018.75 1018.78 1018.89 1018.91 1018.98 1019.05 1019.14 1019.13 1019.13 1019.12 1019.06
1008.84 1009.41 1009.46 1009.63 1009.54 1009.15 1009.16 1009.42 1010.03 1010.37 1011.03 1011.75 1012.30 1012.97 1014.12 1014.26 1014.32 1014.72 1015.06 1015.32 1015.33 1015.68 1015.79 1015.89 1016.08 1016.35 1016.64 1016.86 1017.12 1017.36 1017.58 1017.88 1018.07 1018.47 1018.54 1018.67 1018.67 1018.73 1018.76 1018.89 1018.96 1018.95 1018.98 1019.09 1019.10 1019.14 1019.10 1019.10 1019.11
1008.58 1009.31 1009.65 1009.63 1009.72 1009.46 1009.40 1009.52 1010.12 1010.79 1011.00 1011.56 1011.99 1012.92 1014.13 1014.42 1014.47 1014.81 1015.24 1015.50 1015.56 1015.72 1015.98 1016.16 1016.23 1016.37 1016.66 1016.97 1017.21 1017.46 1017.68 1018.04 1018.37 1018.48 1018.61 1018.65 1018.70 1018.77 1018.85 1018.92 1019.00 1018.99 1018.94 1019.05 1019.04 1019.03 1018.97 1019.04 1018.97
1007.91 1008.74 1009.03 1009.18 1009.48 1009.47 1009.30 1009.58 1010.01 1010.59 1011.14 1011.37 1011.87 1012.70 1013.57 1013.93 1014.34 1014.91 1015.44 1015.73 1015.97 1015.98 1016.06 1016.23 1016.41 1016.60 1016.97 1017.16 1017.39 1017.58 1017.86 1018.18 1018.35 1018.51 1018.62 1018.68 1018.74 1018.84 1018.89 1019.02 1019.03 1019.01 1018.94 1018.95 1018.85 1018.97 1018.97 1018.94 1019.03
1007.23 1008.25 1008.58 1008.60 1008.79 1008.84 1009.12 1009.76 1010.16 1010.30 1011.05 1011.20 1011.51 1011.85 1012.29 1013.46 1014.24 1015.07 1015.64 1016.02 1016.20 1016.39 1016.43 1016.50 1016.76 1016.96 1017.14 1017.27 1017.50 1017.79 1017.87 1018.25 1018.51 1018.57 1018.64 1018.79 1018.98 1018.97 1019.01 1019.12 1019.07 1019.05 1019.06 1018.98 1019.00 1019.04 1018.97 1018.86 1019.03
1006.88 1007.23 1007.03 1006.90 1007.37 1007.79 1008.61 1009.28 1009.91 1010.48 1010.91 1011.23 1011.62 1012.05 1012.74 1013.57 1014.32 1014.98 1015.53 1015.91 1016.22 1016.45 1016.59 1016.66 1016.71 1016.98 1017.25 1017.33 1017.59 1017.91 1018.10 1018.31 1018.46 1018.58 1018.66 1018.85 1019.07 1019.16 1019.07 1019.10 1019.00 1019.02 1019.11 1018.96 1018.93 1019.05 1019.06 1019.07 1019.24
1006.06 1005.89 1005.96 1006.27 1006.54 1007.00 1008.34 1009.29 1009.74 1010.33 1010.87 1010.64 1011.08 1011.86 1012.77 1013.64 1014.38 1014.92 1015.36 1015.55 1015.84 1016.23 1016.48 1016.69 1016.77 1017.05 1017.33 1017.51 1017.59 1017.91 1018.13 1018.27 1018.46 1018.65 1018.84 1019.02 1019.28 1019.34 1019.30 1019.37 1019.31 1019.25 1019.11 1019.29 1019.26 1019.36 1019.38 1019.36 1019.30
1005.45 1004.79 1005.41 1005.73 1006.28 1006.99 1007.90 1008.94 1009.65 1010.01 1010.01 1010.07 1010.99 1011.69 1012.62 1013.30 1013.96 1014.51 1015.03 1015.49 1015.97 1016.18 1016.34 1016.52 1016.64 1016.88 1017.20 1017.48 1017.63 1017.90 1018.09 1018.29 1018.46 1018.64 1018.89 1019.13 1019.32 1019.51 1019.38 1019.36 1019.33 1019.39 1019.42 1019.52 1019.57 1019.67 1019.66 1019.62 1019.55
1004.80 1004.44 1004.93 1005.06 1005.71 1006.54 1007.68 1008.60 1009.27 1009.68 1009.76 1010.11 1011.09 1011.99 1012.67 1013.29 1013.74 1014.25 1014.66 1015.20 1015.66 1016.06 1016.25 1016.37 1016.61 1016.84 1017.09 1017.49 1017.62 1017.88 1018.07 1018.18 1018.39 1018.59 1018.72 1019.02 1019.16 1019.42 1019.56 1019.44 1019.43 1019.49 1019.56 1019.62 1019.74 1019.88 1019.90 1019.85 1019.61
1004.07 1004.19 1004.78 1005.36 1006.03 1006.85 1007.65 1008.79 1009.11 1009.94 1010.03 1010.73 1011.32 1011.96 1012.56 1013.03 1013.45 1013.95 1014.52 1015.02 1015.42 1015.78 1016.06 1016.26 1016.50 1016.60 1016.91 1017.22 1017.56 1017.74 1017.87 1018.00 1018.20 1018.31 1018.46 1018.69 1019.02 1019.19 1019.34 1019.44 1019.49 1019.54 1019.62 1019.69 1019.80 1019.87 1019.86 1019.84 1019.80
1004.11 1005.16 1005.11 1005.98 1006.39 1007.19 1007.79 1009.09 1009.24 1009.53 1010.02 1010.89 1011.56 1012.07 1012.57 1012.93 1013.43 1013.68 1013.99 1014.51 1014.87 1015.20 1015.50 1015.81 1016.11 1016.36 1016.70 1016.92 1017.26 1017.46 1017.52 1017.75 1017.88 1017.95 1018.13 1018.34 1018.61 1018.91 1019.05 1019.36 1019.44 1019.53 1019.67 1019.71 1019.80 1019.81 1019.88 1019.83 1019.70
1004.63 1004.97 1005.99 1006.48 1006.59 1007.25 1007.80 1008.62 1009.13 1009.55 1010.14 1010.84 1011.57 1012.06 1012.39 1012.66 1013.00 1013.42 1013.77 1014.10 1014.48 1014.86 1015.23 1015.48 1015.86 1016.19 1016.44 1016.65 1016.81 1016.99 1017.21 1017.46 1017.56 1017.62 1017.78 1017.98 1018.16 1018.39 1018.87 1019.11 1019.43 1019.52 1019.55 1019.63 1019.68 1019.86 1019.89 1019.85 1019.82
1005.41 1005.70 1006.21 1006.72 1006.58 1007.13 1008.08 1008.86 1009.11 1009.66 1010.11 1010.72 1011.16 1011.68 1012.08 1012.53 1012.81 1013.00 1013.30 1013.70 1014.12 1014.47 1014.82 1015.19 1015.50 1015.74 1016.13 1016.43 1016.50 1016.68 1016.86 1017.11 1017.33 1017.55 1017.68 1017.77 1017.98 1018.23 1018.60 1018.90 1019.16 1019.27 1019.47 1019.59 1019.75 1019.87 1019.97 1019.90 1019.77
1005.55 1005.88 1006.16 1006.36 1006.45 1006.98 1008.01 1008.63 1009.19 1009.64 1010.04 1010.31 1010.75 1011.18 1011.54 1011.83 1012.01 1012.45 1012.79 1013.19 1013.57 1014.04 1014.53 1014.87 1015.22 1015.49 1015.74 1016.09 1016.44 1016.69 1016.97 1017.16 1017.34 1017.43 1017.62 1017.76 1017.94 1018.09 1018.34 1018.72 1018.98 1019.11 1019.32 1019.57 1019.67 1019.92 1020.04 1020.02 1019.95
1004.92 1005.53 1005.55 1005.98 1006.55 1007.32 1007.83 1008.62 1009.02 1009.50 1009.98 1010.25 1010.43 1010.64 1010.86 1010.98 1011.10 1011.79 1012.28 1012.73 1013.15 1013.61 1014.20 1014.64 1015.08 1015.30 1015.72 1016.11 1016.52 1016.93 1017.12 1017.27 1017.36 1017.36 1017.44 1017.54 1017.74 1017.95 1018.16 1018.47 1018.73 1018.98 1019.24 1019.32 1019.52 1019.81 1019.99 1019.92 1019.93
1004.86 1005.42 1005.70 1006.24 1006.54 1007.72 1008.49 1008.94 1009.19 1009.52 1008.89 1009.45 1009.89 1010.11 1010.34 1010.62 1010.98 1011.34 1011.79 1012.33 1012.75 1013.08 1013.54 1014.22 1014.60 1014.94 1015.16 1015.52 1016.00 1016.41 1016.79 1016.98 1016.99 1017.03 1017.18 1017.28 1017.45 1017.69 1017.91 1018.22 1018.65 1018.82 1019.12 1019.32 1019.48 1019.58 1019.74 1019.92 1019.87
1004.74 1004.96 1005.64 1006.08 1006.99 1007.57 1008.52 1009.33 1009.44 1009.39 1009.56 1009.57 1009.52 1009.62 1009.92 1010.10 1010.53 1010.83 1011.24 1011.73 1012.21 1012.78 1013.12 1013.52 1013.94 1014.22 1014.63 1015.17 1015.79 1016.38 1016.70 1016.82 1016.94 1017.04 1017.05 1016.99 1017.27 1017.55 1017.80 1018.13 1018.39 1018.61 1018.86 1019.15 1019.31 1019.43 1019.69 1019.79 1019.80
1004.44 1004.16 1005.04 1006.24 1007.04 1007.88 1007.98 1009.01 1009.01 1008.76 1008.80 1008.69 1008.58 1008.77 1008.89 1009.27 1009.68 1010.06 1010.57 1011.11 1011.63 1011.98 1012.49 1012.94 1013.33 1013.63 1014.23 1014.82 1015.41 1015.77 1016.18 1016.61 1016.59 1016.70 1016.75 1016.82 1016.92 1017.23 1017.58 1017.92 1018.30 1018.57 1018.82 1019.08 1019.14 1019.22 1019.51 1019.75 1019.91
1003.35 1003.67 1005.02 1006.16 1007.43 1007.92 1008.65 1009.06 1007.63 1008.00 1008.35 1007.32 1007.01 1007.42 1007.76 1008.06 1008.59 1009.18 1009.70 1010.16 1010.64 1011.32 1011.94 1012.42 1012.84 1013.21 1013.76 1014.41 1014.86 1015.31 1015.84 1016.14 1016.50 1016.71 1016.84 1016.90 1017.08 1017.20 1017.44 1017.73 1018.00 1018.36 1018.67 1018.92 1019.01 1019.11 1019.38 1019.65 1019.83
1002.76 1004.41 1006.04 1007.31 1008.03 1008.84 1008.02 1008.42 1007.37 1007.31 1005.48 1004.55 1005.77 1006.18 1006.42 1007.04 1007.65 1008.31 1008.87 1009.51 1010.12 1010.76 1011.35 1011.85 1012.36 1012.71 1013.24 1013.84 1014.33 1014.72 1015.26 1015.93 1016.55 1016.81 1016.97 1017.04 1017.23 1017.42 1017.51 1017.71 1017.90 1018.08 1018.41 1018.65 1018.73 1018.94 1019.18 1019.38 1019.57
1002.49 1004.47 1006.47 1008.20 1008.88 1008.81 1007.45 1007.96 1005.58 1004.10 1003.42 1002.87 1003.67 1004.16 1004.84 1005.62 1006.66 1007.37 1008.09 1008.80 1009.49 1010.21 1010.64 1011.15 1011.62 1012.06 1012.49 1013.04 1013.53 1013.98 1014.54 1015.30 1015.87 1016.33 1016.50 1016.93 1017.30 1017.40 1017.49 1017.58 1017.89 1018.05 1018.14 1018.30 1018.48 1018.73 1018.92 1019.07 1019.17
1002.68 1003.82 1005.93 1007.33 1008.57 1008.46 1007.64 1006.74 1003.80 1002.17 1002.09 1002.58 1002.97 1003.32 1004.20 1004.85 1005.50 1006.19 1006.93 1007.75 1008.63 1009.28 1009.83 1010.45 1010.95 1011.30 1011.73 1012.28 1012.83 1013.35 1013.97 1014.72 1015.20 1015.65 1016.21 1016.43 1016.73 1016.80 1016.96 1017.31 1017.55 1017.85 1018.04 1018.14 1018.18 1018.40 1018.56 1018.68 1018.79
1002.43 1003.52 1004.35 1006.26 1008.10 1008.27 1007.30 1005.43 1003.20 1001.96 1001.96 1002.05 1002.02 1002.84 1003.06 1003.57 1004.18 1005.14 1006.14 1006.86 1007.59 1008.31 1008.75 1009.38 1010.07 1010.58 1011.08 1011.62 1012.29 1012.90 1013.58 1014.26 1014.79 1015.16 1015.59 1015.90 1016.21 1016.56 1016.85 1016.92 1017.33 1017.56 1017.80 1017.88 1017.96 1018.19 1018.26 1018.40 1018.51
1000.68 1002.30 1004.40 1006.11 1007.53 1007.99 1006.89 1005.35 1003.30 1002.33 1001.53 1001.41 1001.88 1001.86 1002.04 1002.60 1003.62 1004.31 1005.18 1005.93 1006.43 1006.87 1007.62 1008.54 1009.12 1009.57 1010.10 1010.85 1011.48 1012.01 1012.67 1013.30 1013.90 1014.56 1015.16 1015.43 1015.70 1016.16 1016.49 1016.79 1017.15 1017.43 1017.55 1017.56 1017.83 1018.01 1018.02 1018.11 1018.14
1001.06 1002.01 1003.76 1004.94 1006.14 1006.69 1006.32 1004.55 1002.04 1001.32 1000.88 1000.76 1000.65 1000.59 1000.93 1001.85 1002.70 1003.42 1003.92 1004.36 1004.98 1005.66 1006.78 1007.50 1008.29 1008.82 1009.38 1009.85 1010.59 1011.25 1011.98 1012.69 1013.20 1013.77 1014.32 1014.73 1015.15 1015.61 1016.03 1016.34 1016.68 1017.11 1017.51 1017.43 1017.56 1017.71 1017.82 1018.00 1017.96
999.63 1000.88 1002.34 1004.07 1005.69 1005.90 1004.88 1002.62 1000.53 1000.03 1000.39 1000.33 1000.03 1000.42 1000.85 1001.36 1001.87 1002.51 1003.23 1003.94 1004.70 1005.38 1006.05 1006.42 1007.09 1007.99 1008.27 1008.99 1009.97 1010.45 1011.29 1011.99 1012.63 1013.14 1013.76 1014.45 1014.78 1015.07 1015.51 1015.91 1016.25 1016.57 1016.86 1017.00 1017.27 1017.34 1017.33 1017.63 1017.55
Wind_Speed
6 3 2 2 4 5 1 3 3 3 2 1 2 6 9 9 3 5 1 6 8 6 4 6 12 12 11 12 13 14 15 16 15 14 13 13 12 11 10 9 9 8 6 6 7 7 7 5 4
1 3 3 2 5 4 4 4 6 3 5 9 9 8 6 6 4 9 5 5 7 6 4 4 9 11 13 14 15 16 17 16 14 13 13 12 11 11 9 9 8 7 5 5 5 5 4 3 3
1 2 3 4 4 2 1 3 8 10 8 4 5 5 4 4 7 7 6 8 7 5 5 6 12 14 16 15 16 16 16 15 13 12 11 11 10 10 8 7 7 6 5 4 3 3 3 2 2
2 5 3 4 4 1 3 7 13 10 4 7 9 8 5 8 4 7 11 8 7 6 5 10 14 16 15 15 15 15 15 13 11 10 10 9 9 9 7 6 5 4 3 2 2 3 3 3 4
4 2 4 4 4 2 4 7 8 5 5 7 3 5 8 2 12 14 11 9 7 5 6 8 13 14 14 14 14 13 12 11 9 9 9 9 8 7 6 4 3 2 0 2 2 4 5 6 5
3 2 5 2 2 3 4 6 3 4 8 8 9 7 3 10 13 10 10 8 6 6 5 6 13 14 14 14 13 11 11 11 10 10 10 9 8 7 5 4 2 1 2 4 4 5 6 6 6
4 3 3 3 4 3 3 5 6 3 8 7 10 6 6 9 11 11 9 6 5 5 5 5 5 9 13 12 12 12 12 12 12 10 9 8 6 5 4 4 3 3 4 5 6 6 6 6 5
3 4 3 2 5 3 5 3 6 5 2 9 10 7 10 12 13 10 9 7 5 5 5 4 5 5 5 5 12 12 11 11 11 9 8 6 6 5 5 3 5 5 6 7 7 6 6 5 4
3 3 3 7 9 5 6 4 4 5 10 3 5 6 11 17 14 10 9 6 5 5 5 4 5 4 5 5 5 9 10 10 9 7 6 4 1 2 3 1 5 6 6 7 8 5 6 8 7
4 2 8 8 6 9 11 8 9 5 9 2 7 13 18 17 15 13 12 10 8 7 6 5 5 5 4 3 3 4 4 3 4 4 4 2 1 1 3 5 6 6 6 5 6 4 8 7 3
5 7 5 5 7 15 11 8 5 10 6 6 14 20 20 18 14 13 12 12 13 8 6 7 5 5 5 3 3 2 2 2 3 4 3 1 1 1 1 1 1 1 4 2 4 4 4 4 4
3 8 8 7 8 12 14 9 6 11 6 7 14 20 19 18 15 13 13 11 9 8 8 5 6 5 5 3 3 3 3 2 2 3 4 2 1 1 2 1 0 2 1 1 3 2 3 4 5
6 4 9 9 11 11 13 7 5 7 4 14 18 18 17 15 14 12 13 10 10 9 9 7 6 6 6 5 3 3 3 3 3 3 4 3 3 3 2 2 1 0 0 2 2 2 2 4 5
3 3 9 7 8 5 10 5 9 4 13 14 17 17 16 16 15 12 11 9 10 10 10 7 8 8 6 5 5 4 3 4 4 4 4 6 4 3 3 2 2 2 0 1 1 2 3 3 4
5 7 9 4 4 5 12 2 7 10 15 16 15 14 14 14 12 13 12 11 12 11 11 11 10 8 9 8 5 4 5 4 4 5 5 6 4 5 4 3 2 1 1 1 2 2 2 3 3
3 6 6 5 7 8 6 7 3 14 17 17 15 14 14 14 14 13 11 12 11 9 11 10 9 9 8 7 5 4 4 4 5 5 4 5 5 5 4 3 3 3 2 1 1 1 3 2 2
3 7 4 3 6 7 3 4 8 13 14 15 15 15 14 13 13 13 13 13 12 12 11 10 9 9 8 5 4 5 5 3 3 2 3 4 4 3 3 3 3 3 1 2 1 0 1 2 4
6 6 3 7 10 8 6 4 12 14 14 16 16 14 15 15 16 13 14 14 13 11 10 10 8 7 7 5 3 1 0 1 2 3 2 4 3 4 3 2 4 3 2 2 1 2 1 2 4
8 7 17 1 3 3 5 5 15 16 13 14 14 14 15 16 15 14 13 13 12 11 9 9 8 8 6 3 3 2 3 2 2 3 5 4 3 3 4 3 3 3 3 2 2 1 1 1 1
10 7 10 2 4 5 2 3 10 16 18 17 15 15 14 14 9 10 11 12 11 13 12 10 11 8 8 4 3 3 3 2 2 2 4 4 4 4 4 3 3 4 2 2 2 3 1 1 0
5 11 7 15 6 4 7 3 7 11 8 11 12 12 13 15 14 11 12 13 11 12 12 12 12 12 8 6 4 3 2 1 2 2 2 3 5 5 5 4 3 2 1 2 1 1 3 1 0
7 9 8 9 10 7 6 6 8 11 17 14 17 16 16 16 14 14 13 13 13 13 11 12 13 13 8 9 7 6 4 4 3 3 2 3 6 5 5 4 3 3 2 2 2 1 2 2 1
10 8 11 8 8 6 1 3 7 14 12 22 22 19 19 19 17 17 16 16 15 13 11 11 11 10 9 10 9 8 4 3 2 1 3 4 3 4 4 5 5 4 3 3 3 2 3 2 2
10 8 7 5 5 2 9 9 6 8 25 25 18 20 21 18 18 16 16 15 13 12 12 11 11 12 10 10 11 11 10 6 4 3 3 3 2 2 4 5 4 4 4 4 3 2 3 3 2
7 7 3 3 2 7 3 4 13 11 16 25 23 24 22 19 17 17 17 16 14 13 14 13 13 13 12 12 12 12 11 9 9 7 6 5 3 3 4 5 5 3 4 4 3 3 3 3 3
6 11 8 7 5 5 4 9 13 21 13 8 8 18 15 18 17 20 19 17 16 16 15 14 14 14 12 12 12 11 10 7 6 6 4 5 4 4 5 5 5 5 5 4 3 2 3 4 3
5 4 8 8 2 3 5 9 9 6 7 8 14 13 18 20 20 20 18 18 17 17 18 17 15 14 12 13 10 10 9 8 8 7 6 5 4 4 6 6 6 5 5 5 3 2 3 3 3
11 10 4 3 6 5 5 4 8 6 11 9 8 17 19 18 17 18 18 19 18 20 18 17 17 17 13 13 12 11 11 10 9 8 8 8 7 6 6 6 5 5 5 5 4 3 3 3 3
3 4 5 6 5 8 4 9 10 11 12 12 15 19 19 17 17 17 20 21 21 20 17 17 15 16 14 14 13 12 11 11 9 10 10 9 7 7 7 7 7 6 6 5 4 4 5 4 4
11 12 10 8 7 3 5 9 5 13 6 8 12 14 8 12 16 17 18 18 17 18 17 18 16 15 16 13 12 13 12 12 12 11 10 8 9 6 7 7 6 6 6 5 5 5 4 4 5
Wind_Direction
168 182 215 35 25 75 63 100 88 95 102 39 31 85 98 47 51 147 127 152 128 154 182 168 149 147 150 148 140 142 135 135 136 141 144 148 144 143 142 132 127 123 121 116 106 96 96 93 78
185 191 36 71 73 28 320 94 104 78 116 114 91 103 51 70 62 114 113 153 128 142 148 159 152 156 150 149 146 143 150 149 143 148 149 149 150 142 143 135 125 126 133 122 96 91 86 87 72
234 35 86 91 90 139 197 68 119 125 146 91 108 73 65 75 108 127 126 123 107 123 141 171 159 157 154 153 148 152 156 155 153 147 151 149 145 139 136 133 139 146 143 113 103 87 65 36 33
12 9 18 73 89 184 157 133 131 131 93 58 111 65 74 118 131 136 130 121 126 138 155 159 158 157 154 153 152 153 156 151 147 145 152 151 146 144 137 142 139 132 108 103 48 39 17 8 350
48 52 54 66 17 21 70 127 134 118 86 88 50 91 98 64 113 125 132 137 139 145 147 153 158 154 156 153 152 145 143 143 146 152 160 158 158 147 141 143 130 112 63 325 341 337 343 334 324
48 78 56 49 72 50 47 107 99 74 114 116 96 102 99 132 131 138 138 141 143 141 132 146 152 153 153 154 146 142 150 154 156 160 163 164 160 151 150 162 179 227 286 299 326 330 329 322 314
127 89 138 116 106 51 141 94 113 104 140 128 136 109 117 149 145 139 137 126 132 127 119 133 137 153 152 154 155 155 161 162 164 166 161 157 157 163 184 218 242 266 283 297 316 322 323 318 305
135 90 122 122 161 194 161 84 135 124 71 111 138 159 165 170 146 133 129 128 137 135 126 131 130 130 131 150 168 169 168 167 169 165 156 166 181 201 226 248 292 284 280 289 302 313 324 313 316
165 90 162 192 155 185 156 119 159 105 140 212 161 148 141 149 140 133 136 138 146 160 159 153 145 134 142 144 183 178 181 182 185 187 187 195 164 303 276 270 261 278 291 318 329 334 346 9 20
136 146 208 182 170 164 156 155 152 132 168 96 92 113 135 148 151 153 164 170 175 182 183 185 160 161 151 160 186 164 183 181 187 195 208 181 156 271 253 296 262 273 287 346 358 358 28 20 12
194 217 167 179 169 149 147 155 169 144 230 204 161 151 153 156 161 165 175 181 181 185 179 178 173 168 166 180 194 170 189 179 185 196 200 187 63 317 335 330 353 12 353 31 21 22 24 11 0
193 251 153 163 155 148 159 131 153 166 217 171 162 155 157 163 169 174 178 178 172 184 194 182 170 166 184 183 198 189 186 190 197 199 194 190 202 266 255 257 186 39 14 64 41 25 1 351 340
220 213 160 164 161 154 128 157 162 188 127 132 144 153 165 171 174 181 184 182 176 181 193 196 171 188 196 199 210 191 207 189 200 198 202 188 205 224 286 264 294 326 15 22 21 20 354 336 332
269 156 145 123 114 107 121 136 118 199 137 140 153 165 172 177 181 183 181 183 185 183 192 188 194 196 189 198 201 215 191 206 201 200 209 202 195 208 218 246 242 243 272 336 341 337 333 329 326
159 100 68 77 115 100 108 143 213 152 151 156 167 173 179 188 188 192 186 185 186 191 190 195 197 195 198 204 207 192 211 187 210 213 205 209 207 199 203 209 236 248 258 274 308 313 312 310 319
91 62 111 204 147 171 117 247 161 158 158 168 176 183 188 195 195 197 199 197 192 189 192 195 198 198 201 195 200 199 215 215 224 221 211 214 213 198 187 198 220 229 223 250 280 314 309 316 328
346 150 129 173 201 145 160 220 175 170 166 174 181 188 195 197 203 204 197 197 194 193 197 196 192 194 188 200 195 202 204 203 219 227 209 203 205 202 178 200 203 208 230 251 235 298 271 308 321
185 166 117 197 195 165 165 231 163 180 177 181 189 192 194 200 203 199 200 199 196 194 199 203 192 187 182 194 172 173 91 204 198 212 212 194 214 217 194 187 206 194 204 224 203 231 267 276 302
155 171 186 164 27 41 185 163 180 187 193 197 196 197 201 205 204 200 199 195 192 192 182 189 182 196 176 169 146 146 194 189 214 206 205 192 186 183 170 166 169 168 192 223 206 201 260 303 345
168 152 208 332 146 145 132 303 199 199 202 199 201 207 204 210 188 190 194 192 187 188 189 183 196 189 197 168 148 149 160 187 185 188 206 204 203 179 174 157 170 186 194 228 234 200 149 282 1
171 175 165 218 144 64 120 316 195 213 215 213 222 219 215 209 204 199 191 193 192 193 191 189 193 202 195 163 122 110 101 105 153 194 190 198 178 178 163 177 183 182 185 241 253 190 173 221 272
159 208 164 143 141 201 164 242 226 205 211 214 218 210 214 213 209 203 194 196 196 202 195 194 195 205 188 168 174 165 170 180 208 193 196 185 180 170 169 167 168 189 178 206 230 185 172 164 205
210 153 157 160 173 117 212 82 260 172 217 225 216 208 211 208 205 205 203 200 199 196 191 195 201 201 180 180 188 186 179 188 176 197 201 180 173 177 181 183 172 178 182 216 214 199 189 189 166
142 102 62 60 99 109 217 182 257 191 213 227 211 214 207 204 202 202 200 198 202 192 189 192 195 203 180 180 186 186 189 184 185 192 186 175 169 187 212 197 190 180 183 204 214 226 218 204 195
86 77 359 20 56 208 188 147 232 219 221 221 202 206 204 200 195 194 191 194 192 186 192 193 197 205 187 186 190 190 191 182 189 188 183 165 167 195 206 180 182 181 193 195 201 215 219 210 206
179 150 157 184 183 226 95 207 244 232 230 250 215 214 200 200 196 196 193 191 191 194 201 198 200 207 192 191 195 193 186 187 192 181 181 180 182 191 171 178 181 200 190 201 198 216 230 216 224
189 154 187 118 43 94 201 284 306 226 254 207 212 180 199 198 197 194 190 191 193 198 201 199 199 207 193 193 190 187 182 177 187 186 181 182 177 181 181 184 189 207 214 222 211 226 240 208 228
169 169 100 1 143 221 258 261 232 254 243 212 208 202 206 203 195 193 190 192 197 202 203 201 205 203 195 192 191 188 186 183 182 170 191 183 184 187 184 187 202 216 224 222 212 243 256 252 264
125 149 64 122 134 170 198 258 214 216 216 212 213 211 200 195 192 190 193 197 199 202 200 202 203 199 196 193 189 180 182 183 175 181 190 184 176 184 186 187 199 212 228 230 223 240 255 243 266
191 183 163 189 231 218 177 256 220 210 205 228 225 216 185 183 191 192 193 195 199 204 203 203 201 201 205 197 188 188 178 180 183 190 186 176 186 178 186 192 201 211 220 228 224 239 245 249 253